RH
80 79 82 87 88 85 86 89 93 83 61 58 59 53 42 34 32 35 43 51 59 68 76 84 89 90 90 90 91 91 89 85 86 86 86 85 82 74 65 61 60 59 52 49 59 72 84 89 91 88 90 94 90 91 91 89 88 88 87 85 85 87 87 86 88 88 89 92 91 90 91 91 89 86 83 83 86 87 87 86 86 86 85 86 88
84 85 84 91 91 87 87 90 93 84 67 60 58 49 37 31 35 40 46 57 69 76 79 83 87 89 88 90 91 91 89 86 86 86 87 85 76 68 66 66 62 60 55 58 73 82 90 92 93 93 92 93 87 86 88 86 86 89 89 86 85 85 85 83 83 82 85 90 90 91 92 91 89 88 85 86 87 85 84 81 85 86 85 86 86
79 87 86 91 92 88 88 91 92 88 72 59 52 40 32 36 44 52 62 75 84 87 84 83 86 88 89 92 91 91 91 87 86 86 88 87 79 75 78 78 75 74 69 71 77 80 92 95 92 95 93 93 87 86 89 89 89 91 92 90 90 90 88 87 84 78 76 76 80 84 86 86 85 86 86 90 90 87 83 77 79 79 82 85 84
69 79 85 90 90 89 89 91 92 88 69 55 47 36 40 54 66 75 83 89 91 92 90 85 85 89 91 91 92 92 90 87 86 86 88 89 87 85 86 87 89 88 79 77 80 80 89 94 94 96 93 93 91 89 92 94 94 93 91 91 92 92 92 93 92 89 80 66 65 69 73 75 79 88 90 90 89 91 91 85 87 86 87 89 88
67 78 88 90 90 90 90 93 92 82 66 54 47 51 67 78 85 90 92 92 92 93 92 87 87 91 92 91 92 91 90 87 86 86 87 88 88 87 85 88 92 90 78 75 81 84 88 90 91 95 92 91 93 92 93 95 96 94 92 94 94 93 95 96 93 95 92 75 66 66 68 74 82 92 91 89 91 95 95 91 91 92 92 91 94
71 85 91 92 95 93 93 96 92 81 70 63 62 75 88 90 91 93 94 94 94 92 91 90 90 91 91 92 90 90 91 90 89 89 89 89 90 89 88 89 91 90 78 73 80 80 83 84 84 92 92 90 92 92 94 95 95 95 95 97 95 93 93 93 89 91 96 86 75 70 67 74 85 92 91 90 90 92 95 94 91 89 93 93 92
78 90 94 98 99 94 95 95 91 87 80 73 79 88 91 92 94 94 95 94 95 93 89 88 88 88 90 92 91 91 91 92 92 92 92 91 92 91 89 91 91 92 78 71 81 83 80 79 79 87 88 86 88 87 87 88 88 89 90 92 90 87 86 84 81 83 89 87 79 70 62 67 77 86 91 88 86 90 93 96 92 85 91 95 91
89 95 97 101 98 93 94 93 89 91 87 81 86 90 90 94 94 93 95 95 94 93 89 84 86 88 89 92 91 91 91 93 93 92 92 91 92 90 90 92 89 81 68 62 71 79 77 76 80 85 86 83 81 80 78 79 79 80 81 81 80 78 77 76 74 74 77 79 77 68 57 58 65 77 90 88 86 88 89 90 86 85 90 89 87
96 97 99 99 93 89 92 93 91 89 87 85 87 90 92 93 93 92 93 94 93 93 92 88 91 92 90 92 92 93 92 92 92 91 92 91 91 90 92 91 81 66 59 59 59 63 64 66 77 81 80 79 76 76 76 77 77 76 75 73 72 71 72 72 70 69 70 71 71 65 56 52 53 62 76 82 84 84 89 87 76 84 94 86 84
96 96 96 95 90 89 93 95 91 85 84 85 87 90 92 91 92 92 92 93 94 93 94 94 93 88 87 89 87 87 89 92 91 88 88 88 89 91 93 90 85 72 60 60 57 58 57 54 66 71 72 73 73 75 74 75 73 71 69 68 69 69 69 68 66 64 67 69 66 64 55 49 50 53 58 68 79 82 87 83 75 84 91 89 88
93 93 93 93 90 92 96 92 86 82 82 86 88 90 91 90 91 92 92 92 92 92 93 92 85 78 75 71 66 64 69 75 78 82 86 86 87 89 91 88 91 84 63 59 60 60 58 51 56 63 66 68 70 70 70 69 67 66 66 67 69 69 67 64 60 59 64 66 65 65 55 50 51 50 52 57 67 72 71 68 76 90 85 82 86
90 87 94 92 89 92 92 88 84 82 84 89 90 90 90 90 91 91 91 91 92 92 89 85 77 71 65 59 59 58 56 56 56 64 72 76 81 80 86 87 81 76 63 58 61 62 61 51 46 50 56 61 63 63 63 64 63 64 64 66 69 69 67 64 58 56 60 63 66 66 56 53 52 48 49 51 58 62 61 58 72 94 89 80 83
87 84 94 93 89 90 84 82 83 83 86 91 91 90 89 89 90 90 91 92 91 88 83 78 73 67 63 63 64 62 58 52 45 44 43 49 57 58 74 81 66 63 61 58 59 64 66 57 47 41 46 54 57 59 60 60 62 62 63 66 68 67 67 65 60 57 60 62 67 67 58 55 52 49 46 45 50 52 54 53 62 81 81 78 77
74 80 87 87 89 90 80 80 85 86 90 92 91 89 89 89 89 91 92 91 87 82 78 74 70 67 68 70 66 62 56 49 41 34 27 27 33 37 50 58 56 60 60 57 58 64 67 63 56 44 43 50 53 57 58 59 61 60 61 66 67 66 67 65 60 59 59 62 68 67 60 56 53 49 42 39 43 46 49 50 55 63 66 72 68
47 62 76 81 86 92 85 84 87 90 92 91 91 89 89 89 89 91 89 86 82 78 75 72 71 72 72 69 65 58 48 43 38 30 23 20 23 26 31 39 53 60 55 54 57 63 68 66 62 51 43 48 52 55 56 58 59 58 62 65 66 66 70 70 65 62 58 60 66 67 62 57 54 49 43 40 42 44 46 48 51 58 64 72 69
39 53 72 82 86 89 86 85 86 88 91 91 90 90 89 88 88 87 86 83 79 76 74 74 74 73 69 66 57 46 39 37 34 28 23 20 20 21 25 37 50 52 48 51 55 61 67 66 64 56 45 43 46 50 52 57 58 57 61 64 66 67 68 70 70 66 59 57 62 67 64 57 54 51 48 44 43 44 46 51 52 58 64 69 73
61 65 74 85 87 86 86 86 85 86 90 90 90 89 87 86 85 84 84 81 78 77 76 76 72 67 64 58 45 39 42 44 44 43 35 24 21 20 22 31 41 42 39 44 53 60 66 66 64 60 51 44 41 42 47 51 52 50 57 62 63 65 60 59 68 69 59 57 59 63 65 59 54 51 52 48 44 47 48 52 53 57 61 63 69
79 78 79 83 84 83 86 87 88 90 91 91 90 87 85 84 83 83 82 81 79 77 76 73 67 62 57 48 40 41 48 53 58 60 53 37 26 23 22 24 30 33 33 39 52 58 63 64 62 61 56 51 46 43 41 41 41 43 54 60 60 62 53 47 61 69 60 57 58 60 63 59 53 50 53 51 47 50 51 52 54 56 59 62 65
84 83 82 81 83 86 88 90 92 92 93 92 89 86 84 83 82 83 83 81 79 76 74 68 64 60 52 47 45 45 50 57 61 62 60 53 39 28 25 23 24 25 26 36 50 56 61 63 61 60 58 56 53 49 45 42 42 44 51 55 55 55 48 45 57 67 63 58 57 59 62 59 54 50 51 53 50 54 54 54 55 58 61 64 66
89 86 86 88 90 92 93 94 93 92 93 90 87 86 85 83 83 84 83 81 78 77 71 66 69 66 60 60 59 54 56 59 59 59 60 59 54 41 30 25 22 23 24 35 48 52 56 59 58 57 55 53 53 50 50 49 49 49 51 52 52 48 46 51 58 65 66 63 59 59 62 61 56 52 52 53 53 56 57 57 57 60 63 65 69
97 92 91 93 94 95 96 95 93 92 92 90 86 86 86 85 86 85 82 80 79 77 68 65 74 77 74 73 72 71 71 67 57 54 56 57 58 55 47 36 26 23 26 36 46 49 51 54 54 53 51 49 52 53 54 56 57 57 57 58 57 51 51 57 61 63 66 68 66 61 61 60 57 55 55 53 55 59 59 59 59 60 62 65 69
100 98 95 94 93 94 95 94 94 94 92 91 88 86 88 88 87 83 80 82 80 75 66 65 74 81 84 81 79 80 83 81 66 55 57 57 56 58 59 55 46 38 34 35 39 42 44 46 47 48 47 45 47 53 57 59 60 60 61 61 59 58 58 59 62 64 65 68 68 65 63 60 58 57 57 56 57 60 61 62 61 61 62 65 70
100 100 97 93 88 89 91 91 93 94 93 91 89 87 89 88 82 78 79 81 79 72 68 70 76 83 86 85 83 82 86 88 79 72 70 69 67 66 66 65 65 62 57 52 50 50 51 54 59 61 60 56 53 56 60 62 61 59 58 60 60 59 58 57 59 60 61 62 61 63 62 60 59 59 59 58 59 61 63 63 63 63 63 66 70
100 100 98 94 89 87 88 88 91 93 91 91 90 88 88 85 78 76 76 74 70 66 70 77 81 85 86 85 83 82 82 82 83 85 78 76 79 79 78 75 74 75 74 70 69 69 70 72 74 74 72 69 67 66 66 67 64 60 56 56 57 57 57 56 57 58 58 58 56 57 60 60 59 59 59 59 61 64 65 65 66 65 65 67 70
100 100 99 97 92 88 87 88 91 92 91 91 89 86 85 81 77 74 68 65 63 60 68 76 81 87 88 86 84 81 79 76 79 83 78 78 82 81 80 80 78 79 78 76 76 76 76 76 75 73 71 71 72 71 71 70 66 63 60 56 56 57 58 59 60 60 60 60 58 56 58 60 60 60 60 61 63 65 67 67 68 68 67 69 72
100 100 100 99 93 88 87 87 91 92 91 89 87 85 82 77 75 72 65 66 70 69 72 77 82 87 87 86 84 82 81 79 78 80 81 82 83 80 79 78 76 77 78 79 79 78 76 76 75 73 74 75 75 75 74 72 69 68 64 61 61 61 62 62 62 62 61 60 60 59 60 61 61 61 61 64 66 68 70 69 70 71 70 71 73
99 100 101 99 94 91 88 87 88 89 89 88 87 84 78 75 72 70 70 73 78 81 83 84 85 84 84 85 85 83 82 82 81 83 84 82 80 80 80 80 77 76 78 79 79 79 79 79 77 76 76 78 78 77 75 72 71 70 68 66 65 65 66 66 64 64 62 61 61 62 62 63 63 63 64 65 67 70 75 75 74 76 77 77 80
100 98 99 99 95 91 87 87 87 87 88 87 87 83 76 73 68 67 74 78 80 84 85 85 83 82 83 86 87 86 85 84 84 85 85 81 78 80 83 83 81 80 79 79 79 81 82 81 80 79 77 77 78 77 75 72 70 70 69 67 66 67 67 67 66 65 64 63 63 64 64 64 65 65 66 67 67 68 73 78 78 84 91 91 94
100 95 96 99 93 87 83 81 82 83 87 87 84 80 74 70 67 68 74 79 82 85 86 83 82 84 87 88 89 88 86 85 85 85 85 83 80 83 85 83 83 83 82 83 84 84 84 83 81 80 78 77 76 76 74 72 71 71 70 69 68 68 68 68 67 66 65 65 65 65 66 67 68 68 68 69 70 70 70 74 79 84 92 95 98
97 94 97 98 92 86 82 79 77 78 85 87 81 76 73 72 73 74 77 80 81 84 87 85 85 88 88 88 88 86 85 85 84 84 85 86 84 84 84 83 84 84 86 88 88 87 86 84 82 81 80 79 77 76 75 74 72 71 70 69 68 68 69 69 68 68 67 66 67 67 69 71 72 72 71 71 71 72 70 71 76 75 78 85 91
96 96 100 97 92 85 82 81 78 79 83 85 79 76 75 76 79 79 80 82 82 83 85 87 88 89 86 86 86 83 84 84 84 85 87 86 84 84 84 83 85 87 87 88 88 88 87 85 84 83 82 81 80 78 76 76 74 72 72 70 69 70 71 72 71 71 70 69 69 70 73 74 75 74 73 73 72 72 72 72 74 72 74 76 80
96 98 98 96 93 84 82 81 78 81 81 79 78 78 78 79 80 79 81 82 81 81 84 88 88 84 83 85 85 84 85 86 85 86 89 87 85 85 85 85 87 87 86 86 88 88 87 86 85 84 83 82 79 76 75 75 74 73 73 72 71 72 72 73 73 73 73 73 74 74 75 75 76 77 76 76 75 75 75 74 74 74 79 81 82
95 93 93 95 93 85 85 82 78 79 76 75 77 78 79 79 80 81 84 83 81 82 85 87 86 84 84 85 85 84 85 87 87 89 90 88 86 85 85 86 86 85 86 87 89 89 87 86 85 83 82 80 77 75 75 74 73 74 75 74 73 73 72 72 73 74 74 74 75 76 79 81 81 81 80 80 79 79 79 80 82 84 87 91 92
91 89 92 94 92 88 87 83 80 77 72 73 75 78 80 81 84 86 87 83 82 85 86 85 85 86 86 84 83 83 84 88 90 91 90 89 86 84 84 86 87 87 88 88 88 88 87 86 85 83 81 79 79 79 78 76 76 76 75 75 74 73 72 71 70 70 71 72 75 79 84 85 84 83 81 80 79 79 80 83 88 90 89 89 90
89 90 93 92 90 90 88 87 85 76 70 72 73 77 82 84 86 86 85 83 83 85 85 83 84 85 84 83 84 83 86 90 92 90 89 89 86 85 86 88 90 90 89 89 87 87 87 86 85 83 82 80 80 80 79 78 78 76 75 75 73 71 70 69 68 68 71 74 76 80 82 81 78 77 77 77 78 78 78 80 83 83 80 80 81
90 91 91 90 90 90 88 89 86 78 73 74 74 79 83 85 85 85 84 84 84 85 84 83 83 85 85 86 87 87 89 92 93 92 90 90 87 88 91 92 92 90 89 89 87 87 87 87 86 84 83 82 80 79 78 77 76 75 75 73 71 70 70 70 70 72 75 76 75 74 74 73 72 71 71 71 73 73 72 74 74 75 75 75 77
89 89 88 87 87 86 85 84 82 80 78 78 79 82 83 84 84 84 84 85 85 86 86 87 86 87 89 90 91 91 93 94 95 95 93 91 89 90 93 93 92 90 89 88 87 87 86 86 86 85 84 83 82 80 78 77 76 76 75 72 69 71 72 71 71 72 73 71 69 68 68 69 68 66 66 63 63 64 67 71 71 72 77 78 81
86 85 85 83 83 83 82 79 77 78 78 81 83 83 84 85 86 85 86 88 89 90 91 92 91 90 92 93 95 96 98 98 96 95 92 92 91 91 92 92 91 90 89 88 87 86 85 85 83 83 83 82 81 79 78 77 76 75 72 68 68 73 72 71 72 70 69 69 65 64 65 65 65 63 60 56 55 58 64 69 70 73 79 84 87
85 84 82 81 82 82 82 79 77 78 80 83 84 85 87 87 89 90 91 92 93 94 95 95 94 93 94 95 97 97 97 95 93 92 90 91 91 90 90 89 89 89 88 88 86 84 83 82 81 80 79 79 79 78 77 75 73 71 69 64 66 74 73 70 72 71 69 68 63 60 60 59 58 54 50 49 48 52 63 66 66 74 80 83 86
85 83 82 82 81 81 82 82 83 83 84 87 88 88 91 92 94 95 96 97 97 99 98 97 96 94 95 96 95 94 92 91 90 89 88 87 87 87 87 86 86 87 86 86 84 83 82 80 80 78 78 78 76 76 74 72 69 65 62 60 66 78 79 71 71 74 72 68 62 55 52 50 46 40 37 41 44 49 62 64 62 75 82 78 77
89 84 83 82 81 80 80 84 89 90 88 88 88 89 92 94 97 97 99 100 99 99 98 97 95 94 94 93 92 91 89 89 87 85 85 83 83 83 83 83 83 82 82 82 81 81 80 79 78 77 78 77 75 76 72 67 66 67 66 61 65 82 85 74 71 77 74 68 62 48 42 41 32 26 27 34 44 52 61 59 54 72 86 78 69
92 87 84 83 83 83 83 88 93 94 91 90 90 92 93 93 96 99 100 100 98 97 96 95 93 91 90 88 88 87 85 84 83 82 81 79 79 78 78 78 78 79 79 80 79 78 77 76 75 74 77 76 76 77 72 67 67 79 89 82 78 85 82 68 67 78 77 68 60 43 36 39 26 16 20 33 47 55 58 51 46 65 80 74 63
92 90 90 90 91 91 91 94 96 98 97 96 95 96 95 93 95 99 99 97 94 93 93 92 90 88 87 85 84 82 81 80 79 78 77 77 77 75 76 76 76 78 78 77 76 75 73 72 69 71 75 75 76 76 77 77 70 78 96 96 93 95 87 71 64 75 80 70 59 41 36 43 29 12 16 35 53 57 51 43 43 58 70 64 52
97 97 97 97 97 97 98 98 98 100 98 95 97 98 98 96 96 97 96 94 91 91 90 87 86 85 82 80 79 78 77 77 76 76 76 76 76 76 76 76 76 77 76 74 73 72 69 67 68 73 75 73 74 76 81 84 75 76 92 99 97 98 99 90 79 80 80 72 61 43 39 48 35 14 16 34 55 60 47 38 42 56 64 53 39
100 100 100 100 100 100 99 98 99 101 97 94 98 99 98 98 96 95 93 91 89 87 86 83 81 81 79 77 77 76 75 75 75 74 75 75 76 76 76 76 76 76 74 72 71 68 66 67 72 75 73 71 71 74 80 86 82 76 85 96 96 97 99 92 86 82 75 72 66 49 43 52 42 21 18 32 52 63 51 37 42 57 61 46 34
100 100 101 100 100 100 99 99 100 100 97 95 96 96 96 95 93 93 91 89 87 85 83 81 79 78 77 76 76 75 75 74 74 74 74 75 75 76 76 76 75 74 71 67 63 60 61 65 68 68 67 67 65 69 78 84 82 74 73 81 85 91 92 87 88 86 77 74 67 54 46 46 43 29 21 30 50 66 57 40 42 58 64 53 43
100 100 100 100 101 100 100 100 98 97 96 95 95 94 94 94 92 91 91 89 87 84 82 80 79 77 76 76 75 75 75 74 74 74 74 75 76 76 75 73 70 65 60 58 58 61 65 67 67 66 66 64 60 68 78 77 77 75 68 66 67 70 73 80 94 97 91 81 67 61 52 40 39 34 27 31 45 65 62 45 46 58 66 64 58
100 100 100 100 100 100 100 100 96 94 94 94 94 93 94 94 92 91 91 89 87 84 81 79 78 77 76 76 75 75 75 74 74 74 74 76 76 75 72 67 61 58 58 63 69 72 74 72 70 68 66 64 64 70 75 72 74 74 66 62 63 61 62 70 82 91 96 91 75 71 63 46 38 33 31 32 39 63 66 50 54 64 67 68 65
100 100 100 100 99 99 99 97 95 93 93 93 94 94 94 93 93 92 91 89 86 83 81 79 78 77 76 76 76 76 75 74 75 74 75 76 77 75 70 64 59 61 66 72 76 75 73 70 68 67 66 68 69 69 69 68 69 69 64 62 60 58 60 61 65 74 85 89 82 77 73 65 54 37 31 31 34 58 69 55 58 68 69 68 66
100 100 100 100 100 99 98 97 97 96 94 94 96 97 96 94 93 93 91 88 86 83 81 79 77 76 76 75 75 75 73 74 75 74 76 77 78 76 70 66 66 68 70 71 72 71 70 68 66 67 67 67 68 66 67 66 65 65 63 62 61 64 70 73 74 76 82 86 84 81 78 78 75 56 39 35 35 53 67 58 59 70 70 68 69
100 100 100 100 100 100 99 99 100 99 97 98 99 100 98 96 95 93 90 88 86 83 81 79 77 74 74 73 72 72 72 73 74 75 77 77 78 76 72 71 72 72 70 68 68 67 67 66 65 65 64 64 65 65 65 65 64 65 62 59 60 65 75 82 84 82 85 89 88 86 81 77 78 63 47 44 42 49 60 56 57 69 69 67 70
Wind_Speed
20 20 19 19 17 17 17 18 17 17 19 18 17 15 15 16 17 17 18 18 17 17 17 17 16 15 15 15 15 14 15 15 15 15 15 15 14 13 12 11 11 12 11 10 10 11 12 11 10 10 12 13 13 13 13 14 15 15 14 14 15 14 14 13 13 12 12 13 13 12 10 10 9 9 10 10 10 10 10 10 11 11 11 10 10
23 20 21 19 18 17 17 18 18 17 18 18 16 15 15 16 17 18 18 18 17 17 17 17 16 15 15 14 14 14 14 14 14 14 14 14 13 13 12 11 11 11 10 11 12 12 11 11 10 10 11 13 14 14 15 15 17 16 15 15 15 15 15 14 13 12 12 12 12 11 10 9 8 9 9 9 10 9 9 8 9 10 9 9 9
24 22 21 19 18 17 18 18 18 17 18 18 16 16 16 17 18 18 17 17 17 17 16 17 16 15 14 14 14 13 13 14 14 14 14 13 12 12 11 11 11 11 11 12 13 12 11 10 10 10 11 13 14 15 15 16 16 16 15 15 15 15 15 15 14 13 12 11 10 9 8 8 8 8 9 9 8 7 9 9 8 9 9 9 8
24 23 20 19 17 17 18 18 18 18 18 18 17 16 17 17 17 17 17 17 17 17 16 16 16 15 14 14 13 13 13 13 13 12 13 12 11 11 10 10 10 10 11 11 12 12 11 10 9 10 11 13 14 14 14 14 14 15 15 14 13 13 12 12 13 13 11 10 9 9 8 8 9 10 9 7 7 8 10 9 9 9 9 9 8
26 24 21 20 18 18 18 19 19 18 19 18 17 16 17 17 17 16 17 17 17 16 15 15 15 15 14 14 13 12 12 12 12 12 12 11 10 10 10 10 10 10 9 10 10 10 10 9 9 10 11 13 13 14 13 14 13 13 13 12 12 10 9 8 9 10 8 8 9 9 9 9 10 10 9 7 8 8 7 7 9 9 8 8 7
27 24 23 22 20 18 18 19 19 18 18 17 16 16 16 16 16 16 16 16 16 15 15 15 15 15 14 13 12 12 12 11 11 11 11 11 10 9 9 10 10 9 8 9 10 9 9 9 10 10 11 13 13 13 13 12 11 11 11 10 10 10 8 5 6 7 5 5 7 8 9 9 9 8 8 8 7 6 5 6 7 7 7 7 6
27 26 24 23 22 19 19 20 19 18 17 17 17 17 17 16 16 16 16 16 15 15 15 14 14 14 14 13 12 11 11 11 10 10 10 10 9 8 8 9 8 7 6 7 9 9 8 8 10 11 11 12 12 13 13 12 11 10 10 8 8 7 5 3 2 3 3 3 5 6 8 8 7 7 6 6 6 6 5 3 4 5 6 6 5
27 26 25 24 22 20 20 20 19 18 17 17 17 17 17 16 16 15 15 15 14 14 14 14 14 14 14 12 11 11 10 10 10 9 9 9 8 8 8 7 6 6 5 6 7 8 8 8 10 11 11 11 12 12 12 11 10 10 9 7 6 4 3 1 0 3 4 3 5 6 7 7 6 6 5 4 4 4 2 1 3 5 5 5 6
27 26 25 25 22 21 21 20 19 18 17 17 17 17 16 16 15 15 15 14 14 14 13 13 13 13 13 12 11 10 9 9 9 8 8 8 7 7 6 5 5 6 6 6 7 9 9 9 10 10 11 11 12 12 11 10 9 8 7 5 5 5 3 1 1 3 4 4 5 5 6 7 6 4 4 3 2 1 1 2 4 6 5 5 7
28 26 25 24 23 22 21 21 19 18 18 18 18 17 16 16 15 15 14 14 13 13 13 13 13 12 12 11 10 9 8 7 7 6 6 6 5 5 5 4 5 5 5 5 7 10 10 9 10 11 11 11 11 10 9 8 8 6 6 5 6 6 4 1 2 4 4 4 4 5 5 6 6 5 3 2 2 2 2 3 4 5 5 5 5
27 27 25 23 23 22 22 21 19 18 18 18 18 17 16 15 15 14 14 13 13 12 12 12 12 11 10 9 8 7 5 5 5 5 4 4 4 4 4 4 5 5 5 5 7 9 10 9 9 9 10 10 10 9 8 7 6 6 5 6 7 7 4 1 1 4 4 4 4 4 5 6 6 6 4 3 2 2 3 4 5 5 3 4 4
28 27 25 23 23 22 22 21 20 19 19 19 17 17 16 15 15 14 13 12 12 11 11 12 11 10 9 8 6 5 3 2 2 3 3 4 5 4 4 4 5 5 5 6 6 7 9 8 7 7 8 9 9 8 7 6 6 5 6 6 7 7 5 2 1 2 2 2 2 2 3 4 6 7 6 5 4 5 5 5 5 4 3 4 3
29 28 26 25 23 22 22 21 21 20 19 18 17 17 16 15 14 13 13 12 11 11 11 11 10 9 8 6 5 4 2 1 1 1 2 3 4 4 4 4 5 7 7 6 6 7 8 8 7 6 7 8 8 7 6 5 5 5 5 6 6 7 7 5 3 2 0 0 0 1 2 3 5 7 7 7 6 6 6 6 4 2 2 3 2
31 29 27 26 24 22 22 22 22 21 20 18 18 17 16 15 14 13 13 11 11 11 11 10 9 7 6 5 4 4 3 2 1 1 0 1 2 3 4 5 7 9 8 7 6 6 7 8 7 6 7 7 7 6 5 5 4 4 4 5 6 7 8 7 5 5 3 2 2 2 2 3 5 6 7 7 7 7 7 7 5 4 3 3 2
32 30 28 26 24 22 22 23 22 21 20 19 18 17 16 15 14 13 12 11 11 10 10 9 7 6 5 4 4 5 4 3 2 2 2 1 2 2 3 6 8 9 9 7 6 6 6 7 7 7 6 7 6 5 5 4 3 3 3 4 5 7 9 9 9 8 5 4 4 3 3 3 4 5 6 7 8 8 8 8 7 6 5 4 4
30 30 28 26 25 23 22 22 22 21 20 19 18 17 16 15 14 13 12 11 10 9 9 7 6 5 5 5 5 6 6 6 6 5 5 5 4 4 5 6 8 9 9 8 6 5 5 6 7 7 6 6 5 5 4 3 3 1 1 3 4 6 8 10 11 11 7 5 5 5 5 5 4 4 5 7 8 9 9 9 8 7 5 5 5
28 29 28 26 25 23 23 21 20 20 19 19 18 17 16 15 14 13 12 11 10 9 8 7 6 5 5 6 8 9 9 8 9 9 9 8 6 6 6 6 7 8 8 8 6 5 5 5 6 6 6 5 4 4 3 3 2 1 1 1 3 5 7 9 10 11 10 6 6 6 6 6 5 4 4 6 8 9 9 9 8 7 6 5 5
25 26 26 25 24 22 21 20 19 20 19 18 17 17 16 15 15 13 12 11 10 9 7 7 6 6 7 8 9 9 9 9 9 9 10 10 9 7 6 6 6 7 8 8 7 5 5 5 5 5 5 4 4 3 2 2 1 2 2 1 2 4 7 9 8 10 12 8 5 6 7 7 6 4 4 6 8 9 9 9 9 8 8 6 6
23 24 24 24 23 21 20 20 19 19 19 18 17 17 16 16 15 13 12 10 10 9 8 7 8 8 9 10 10 10 10 9 9 9 10 11 10 9 7 6 6 7 8 8 7 5 5 4 4 4 3 3 2 2 2 1 1 1 1 3 4 6 8 9 7 8 11 9 6 6 7 8 7 6 5 6 8 9 10 10 9 8 8 7 6
22 23 23 22 22 21 21 20 19 19 19 18 17 16 16 15 14 13 12 10 10 8 8 9 10 10 9 10 10 10 9 8 8 8 9 10 10 10 9 8 7 7 8 8 7 5 4 3 2 2 2 2 1 1 2 2 3 3 3 5 6 7 8 7 6 7 9 9 7 6 7 9 9 7 6 6 8 10 10 11 10 9 9 8 7
21 22 23 22 22 21 21 21 20 19 19 18 17 16 16 15 14 13 11 10 9 8 9 10 10 9 9 9 9 9 9 8 8 7 8 8 9 9 9 9 8 7 7 7 6 5 3 1 0 1 2 2 2 1 1 3 4 5 5 6 6 6 6 7 6 7 9 10 9 7 8 10 10 9 7 7 9 10 11 11 11 10 10 10 9
20 22 22 24 24 23 22 22 21 20 19 18 17 16 16 15 14 13 12 10 9 8 9 10 9 8 7 7 7 7 7 7 7 7 7 7 7 7 7 8 8 7 6 5 4 3 1 0 2 2 3 3 3 2 1 4 6 6 6 6 6 5 5 7 8 9 11 12 12 10 9 10 11 11 9 9 10 11 12 12 12 11 11 10 10
22 25 25 26 26 25 24 23 22 21 20 19 18 17 16 15 14 13 11 10 9 9 9 10 9 7 6 6 6 5 5 5 6 6 6 6 6 5 5 5 6 6 5 4 3 2 2 2 2 3 4 4 4 4 4 6 8 8 7 6 6 5 6 7 8 10 11 12 13 11 9 10 11 11 11 11 11 12 13 13 13 12 11 11 10
27 28 28 27 27 27 25 25 24 23 21 20 19 18 16 15 14 12 11 11 10 10 10 10 8 7 5 4 4 3 3 3 4 3 3 4 4 4 3 3 3 4 3 3 3 3 3 3 4 4 5 5 5 6 7 8 9 9 8 7 7 7 7 8 9 10 11 12 12 11 9 9 10 12 12 12 13 14 14 15 14 13 13 12 11
28 27 28 28 28 28 27 25 24 23 22 21 20 18 17 15 14 13 12 11 10 10 10 8 7 5 5 4 3 2 1 1 1 2 2 2 3 2 2 2 2 2 2 2 2 3 3 4 4 4 5 6 6 6 7 9 9 10 9 8 7 7 8 9 10 11 12 13 13 11 9 9 10 11 12 12 14 15 15 16 16 15 14 14 13
26 26 27 29 28 28 27 25 24 22 21 21 20 18 17 16 15 14 13 12 11 10 9 7 6 4 4 4 3 1 1 2 1 1 1 1 1 1 1 2 2 2 2 2 2 3 4 4 5 4 5 6 6 7 7 9 9 9 9 8 7 8 9 10 11 12 13 14 14 12 10 10 10 11 12 13 15 16 17 18 17 17 17 16 15
26 26 27 29 28 27 26 25 24 23 21 20 19 18 17 16 15 14 13 13 11 9 8 7 7 6 5 4 3 2 2 4 4 4 3 1 1 1 1 1 2 2 3 3 2 4 4 5 5 5 6 6 6 7 7 8 8 8 8 8 9 9 10 10 11 12 13 14 14 13 12 11 11 12 13 13 14 17 19 19 18 18 17 17 17
24 24 26 27 27 26 25 25 25 24 23 21 19 18 17 16 16 15 13 12 11 9 8 8 8 8 6 5 4 3 3 5 6 6 5 2 3 3 3 2 2 3 3 3 3 4 4 5 5 5 6 6 6 7 7 7 7 7 7 7 8 9 9 10 11 11 11 12 13 13 13 13 13 13 13 13 15 17 17 18 18 18 17 16 16
22 23 24 25 26 26 24 24 24 23 23 22 21 18 17 17 16 15 13 12 11 9 9 9 9 9 7 7 6 5 5 5 5 5 5 3 3 4 4 4 3 3 3 3 3 4 4 4 5 5 6 6 7 8 8 7 7 7 6 7 7 8 9 10 11 10 10 11 11 12 12 13 13 14 14 15 18 18 17 17 18 17 17 17 17
22 22 22 23 24 24 23 22 21 21 22 23 22 19 18 17 15 14 12 11 10 8 10 11 10 10 9 9 8 7 6 4 4 3 4 4 4 4 4 4 4 3 4 3 3 3 4 4 4 5 5 6 7 8 9 8 7 7 7 7 8 8 9 10 11 10 11 11 12 12 12 12 13 13 14 15 17 18 18 18 17 16 15 16 17
22 21 21 22 23 23 22 20 20 19 21 23 22 21 19 16 14 13 11 11 10 9 11 12 12 11 10 10 8 8 7 7 6 4 3 3 3 4 4 4 4 3 3 3 3 4 4 4 4 4 5 6 7 8 8 8 7 7 8 8 8 8 9 9 10 10 10 11 11 12 12 12 13 13 13 14 15 15 16 17 17 18 17 16 15
22 22 22 22 22 23 23 21 20 19 20 23 23 21 18 16 13 12 11 10 9 11 14 14 13 12 10 9 8 8 8 8 7 5 3 2 3 3 4 4 3 2 1 2 3 4 4 4 4 4 5 6 7 7 7 7 7 7 8 8 9 9 9 10 10 9 9 9 10 11 12 13 14 14 14 14 14 15 16 16 17 18 18 18 17
22 24 24 22 22 23 23 22 20 19 20 23 23 20 17 15 13 12 12 11 11 13 15 15 13 11 10 9 9 9 9 8 7 6 4 2 3 4 4 4 2 1 1 2 3 4 4 4 5 5 6 7 7 7 7 7 7 8 8 9 10 10 11 10 10 10 9 9 9 10 12 13 14 14 13 13 14 15 16 17 18 19 18 19 20
23 25 23 22 23 24 23 22 21 20 21 22 21 18 15 14 13 13 13 13 14 15 15 14 12 11 11 10 10 9 9 8 6 5 5 3 4 4 4 3 1 0 1 2 2 3 4 5 5 5 6 6 7 7 8 8 8 9 9 10 11 11 11 11 11 10 10 9 9 10 11 12 13 13 13 13 14 14 15 16 17 17 18 19 20
25 25 22 22 23 23 22 22 22 22 22 20 19 17 16 16 15 14 14 14 15 14 13 11 10 10 9 9 9 8 7 6 6 6 6 5 4 4 4 3 2 1 0 1 2 2 3 5 5 6 6 6 6 7 9 10 10 10 10 11 12 12 12 11 11 10 8 8 8 9 10 11 13 13 14 14 14 14 15 16 16 16 17 18 19
25 24 22 21 21 20 21 22 21 22 22 20 18 18 18 17 16 14 13 13 13 12 11 9 8 8 6 6 8 7 7 7 8 7 7 6 6 6 6 5 3 2 1 1 1 2 3 4 5 6 6 7 8 9 10 11 11 12 12 12 13 13 12 12 11 11 10 10 12 13 13 14 15 16 17 17 16 16 17 17 17 17 19 19 18
22 22 21 20 20 19 20 21 21 21 20 20 20 19 19 17 15 14 12 11 11 10 8 7 7 6 6 6 6 7 8 9 9 8 8 8 7 7 6 5 3 2 2 2 2 3 3 3 5 6 7 8 10 11 12 13 13 13 13 12 12 11 12 13 14 14 14 15 17 17 16 17 18 19 19 20 20 19 18 18 17 18 21 21 20
20 21 21 21 21 20 21 21 20 20 20 21 21 20 18 16 14 13 11 10 9 8 8 8 8 8 8 8 9 10 11 12 11 10 9 8 8 7 6 5 3 3 3 3 4 4 4 4 5 6 8 9 10 12 13 14 14 15 14 12 9 8 11 13 14 15 16 18 19 19 19 19 19 20 21 21 21 21 21 20 19 19 22 23 23
19 20 21 21 21 20 20 20 20 20 20 20 20 19 17 16 14 12 11 10 10 10 11 10 11 11 11 12 13 13 13 13 11 10 9 8 8 7 5 4 3 2 4 5 5 5 5 6 6 6 8 9 10 12 13 14 15 14 13 10 6 4 9 13 13 15 17 18 20 20 19 20 21 21 22 22 21 21 21 21 21 21 22 22 22
20 21 21 21 21 20 18 18 19 19 20 20 19 18 17 16 14 14 13 13 13 13 13 13 13 13 14 13 13 12 11 10 9 8 7 7 6 5 3 2 2 4 5 5 5 6 6 7 7 7 8 8 10 12 14 15 15 13 11 6 4 3 6 12 15 15 17 18 19 20 20 21 22 23 22 22 21 21 21 22 22 22 21 22 21
19 21 22 21 20 19 18 18 18 19 20 20 19 19 18 17 17 17 17 16 15 15 15 15 15 14 13 12 11 10 9 8 7 6 5 4 3 3 1 1 2 3 4 4 5 5 6 7 7 8 9 10 12 14 16 15 12 11 8 5 4 5 6 9 17 17 16 18 20 21 22 22 24 24 23 22 21 22 22 22 23 23 22 22 21
19 21 22 22 20 19 19 18 18 19 19 19 19 19 19 19 19 20 20 19 17 17 17 16 15 13 12 11 10 8 7 6 5 3 2 2 1 1 2 2 3 3 3 4 4 5 6 7 7 8 9 10 13 16 17 13 10 8 5 5 4 5 5 6 15 18 16 17 20 22 23 23 26 27 24 23 23 23 24 24 23 24 23 23 23
21 21 21 20 20 19 19 19 19 19 19 18 18 18 19 19 20 21 21 20 19 18 17 16 14 12 10 8 7 5 4 3 3 2 1 2 2 2 3 3 3 4 3 4 5 7 8 9 9 8 7 9 12 16 17 15 12 7 2 3 3 2 1 4 12 15 13 15 18 22 24 23 26 29 26 25 26 25 25 25 24 24 24 24 25
20 20 20 20 20 20 20 20 19 19 19 18 17 18 19 20 21 22 22 20 20 18 17 15 13 11 9 7 5 3 2 2 3 3 3 3 3 3 3 3 4 5 4 5 7 9 10 10 10 8 7 9 12 17 18 17 16 10 3 1 1 2 2 5 13 10 9 14 17 22 24 22 25 29 28 26 26 26 26 26 24 25 25 25 27
20 20 21 21 21 21 20 20 20 20 19 18 18 20 22 23 23 23 21 20 19 18 16 14 12 10 8 7 5 3 3 3 4 4 4 4 4 4 5 5 6 6 6 7 9 10 11 11 10 9 9 10 13 17 19 20 21 18 11 4 2 2 1 5 10 4 6 12 15 20 24 21 22 29 29 25 24 25 26 26 25 24 25 26 28
20 21 21 22 21 20 20 20 20 20 19 18 20 23 26 26 26 25 23 21 18 16 15 14 12 10 8 7 7 5 4 4 5 5 5 4 5 5 6 6 7 8 8 9 11 12 14 15 15 13 14 13 13 16 18 21 23 24 22 17 11 7 3 5 4 2 5 7 9 17 23 22 21 26 30 25 23 24 24 26 26 24 25 28 31
20 21 21 21 21 20 20 20 20 20 20 21 23 26 27 27 26 25 24 23 20 16 15 14 12 11 10 8 7 6 6 5 5 5 5 5 5 6 7 7 9 10 11 13 16 18 19 20 19 18 18 15 14 17 17 17 20 22 23 21 20 17 14 10 4 2 4 3 6 14 20 22 20 25 29 26 23 22 23 26 27 25 25 28 32
21 22 21 20 20 20 20 19 19 20 21 23 26 27 28 27 26 24 23 22 21 19 16 14 13 12 11 9 8 8 6 6 6 5 5 4 6 7 8 9 12 14 16 18 20 20 20 19 18 18 18 17 17 20 20 19 19 19 19 19 19 19 19 19 13 7 3 4 5 9 17 21 19 23 28 26 23 20 21 26 27 26 26 28 32
23 23 21 19 19 19 20 19 19 20 21 24 27 27 27 28 26 24 22 20 19 19 17 15 13 12 11 11 9 8 7 6 6 4 4 6 7 9 11 12 15 17 18 19 19 19 19 19 18 18 19 21 21 21 23 23 22 20 19 19 18 18 19 21 22 16 8 4 4 6 16 20 17 22 27 26 24 19 17 24 28 26 26 29 32
23 23 21 19 19 20 20 20 20 21 24 26 28 27 27 27 26 24 24 22 20 20 18 16 15 13 13 12 10 9 8 7 5 4 6 8 10 11 12 14 16 18 19 19 19 19 19 19 20 20 21 23 23 23 24 24 24 23 22 21 21 20 18 18 21 19 12 7 5 7 15 18 15 19 27 28 25 18 14 23 29 26 26 30 32
22 22 21 20 21 21 22 22 21 22 25 26 26 26 26 26 25 24 24 23 22 21 20 18 17 15 14 12 10 9 8 8 8 9 10 11 12 13 14 15 16 17 18 18 19 19 19 19 20 21 22 23 23 24 25 24 24 25 24 24 24 23 18 15 17 18 14 8 6 7 15 20 16 17 25 27 24 18 13 23 30 26 27 32 33
Wind_Direction
159 152 148 146 143 147 145 146 144 139 138 138 135 131 131 129 129 129 127 122 116 112 109 109 107 106 106 107 108 108 109 110 110 109 109 107 102 99 96 93 91 92 83 70 70 67 68 82 91 90 93 98 99 101 104 108 108 105 105 105 106 107 108 106 103 100 98 95 93 92 91 88 78 71 79 90 91 90 91 91 92 88 83 79 77
155 151 147 144 146 146 145 145 142 139 137 137 134 132 131 130 129 127 125 119 114 112 111 111 108 107 107 107 108 108 109 111 111 111 110 106 101 98 94 89 89 90 75 65 70 68 67 78 93 97 97 102 100 100 102 106 108 106 105 104 104 102 100 97 96 100 103 103 101 97 93 89 80 75 74 79 84 82 83 95 102 95 89 84 83
149 148 145 142 145 144 145 145 141 137 135 136 133 134 131 128 126 123 121 116 114 112 112 111 109 109 109 108 108 108 108 110 111 112 112 106 101 97 92 88 85 78 63 61 65 68 73 76 90 100 103 107 107 107 105 105 106 107 107 105 102 100 95 89 85 84 90 99 104 106 105 102 94 81 74 77 78 64 62 81 92 87 88 83 81
148 144 141 141 143 144 146 145 141 136 136 136 134 133 128 125 122 120 118 115 115 112 112 111 111 110 108 108 107 110 110 111 112 113 114 109 105 99 94 91 87 75 60 62 61 62 69 77 89 98 105 110 114 114 108 107 109 111 111 107 102 98 91 84 76 67 67 82 90 96 99 98 96 90 84 80 71 70 66 74 82 79 82 78 72
146 141 142 143 143 146 146 145 140 136 137 136 134 130 124 123 121 120 119 117 116 113 113 111 111 109 108 109 108 111 111 113 114 115 115 111 109 103 98 93 87 76 62 65 67 65 67 76 92 102 110 113 117 119 114 111 112 112 112 110 110 105 96 86 76 67 57 71 81 82 86 82 87 92 90 85 76 82 77 70 81 84 80 76 74
144 142 144 143 144 147 148 145 139 137 137 135 132 127 125 124 122 122 120 118 117 114 113 112 111 110 111 109 109 112 112 114 115 116 115 111 109 105 99 89 82 70 57 64 69 68 69 81 100 107 112 117 119 122 122 117 114 112 111 111 117 119 114 101 86 86 68 72 84 77 77 79 86 93 95 97 91 83 72 64 69 84 89 80 84
144 144 146 145 145 146 147 144 139 138 137 135 131 128 128 126 125 124 122 120 117 115 113 113 113 112 111 110 111 111 112 114 115 116 114 112 109 101 93 85 80 70 58 65 69 66 69 89 108 112 115 123 123 126 129 125 122 120 119 113 113 116 108 86 75 114 129 99 93 77 72 78 86 95 97 101 103 91 77 61 47 77 95 85 87
145 146 147 145 143 146 146 143 141 139 138 135 132 132 132 128 128 125 123 121 118 115 113 115 113 111 111 110 111 110 113 114 115 117 116 115 110 102 96 92 84 77 70 66 69 69 74 96 112 117 121 127 129 132 133 131 128 125 121 112 102 92 69 50 201 163 152 121 99 84 73 73 79 93 103 109 119 113 88 13 45 85 87 85 98
146 147 146 143 142 146 146 145 143 142 140 135 135 135 134 131 128 126 124 121 119 116 113 113 110 110 111 110 111 110 113 113 115 114 115 115 114 113 108 108 93 86 81 65 66 69 78 105 121 126 131 134 136 136 134 133 128 122 112 99 84 68 63 80 167 141 131 119 101 89 73 63 63 76 101 109 117 119 76 38 63 93 86 81 99
146 146 144 142 144 147 147 147 145 144 140 136 138 137 135 132 129 127 125 121 119 117 114 112 110 110 110 110 108 109 114 115 117 115 121 123 124 129 126 127 108 96 94 76 67 68 78 109 131 136 139 139 138 137 135 132 125 118 105 90 78 69 72 87 122 114 121 123 103 89 71 51 45 43 49 62 83 76 55 48 62 93 102 93 99
145 145 143 143 147 149 148 147 145 144 140 139 140 137 136 133 131 128 124 124 121 118 116 113 111 109 107 106 100 101 109 114 125 129 139 147 147 151 155 153 127 115 118 95 74 73 81 106 135 143 144 144 142 142 138 134 126 116 103 91 79 75 77 62 100 100 111 122 110 91 65 43 35 31 22 6 24 35 29 51 67 83 90 88 100
144 143 141 145 149 149 148 147 144 142 141 141 141 138 137 134 131 128 127 127 124 123 120 115 112 110 107 102 94 91 95 105 128 143 154 164 167 167 163 170 154 142 137 110 84 80 84 100 130 149 152 150 149 146 142 136 126 115 103 90 76 74 72 43 15 78 101 116 112 90 57 37 32 28 19 9 12 16 27 48 67 84 59 50 79
144 144 144 148 150 151 150 146 143 142 143 143 142 140 137 134 131 131 133 132 130 129 122 118 115 111 106 97 89 80 73 79 97 166 190 189 185 178 158 165 162 148 142 122 99 90 86 94 113 145 157 157 155 150 144 136 123 114 100 82 70 67 58 39 2 349 323 184 19 42 42 22 26 27 17 14 14 11 16 24 47 71 19 25 42
146 147 148 149 149 151 148 143 142 144 145 144 143 141 139 137 137 139 140 139 135 129 123 120 115 108 100 89 79 70 58 46 32 22 5 219 197 189 171 163 159 152 146 130 113 99 91 92 96 126 154 162 162 156 148 139 127 116 96 75 66 59 47 35 16 352 312 277 296 330 352 3 17 20 13 12 11 6 2 3 16 13 357 13 35
149 148 148 148 146 148 146 143 145 145 146 146 144 144 143 143 145 147 146 144 136 127 123 117 110 100 91 84 74 73 65 51 51 52 50 73 123 155 160 157 156 154 147 133 121 105 93 91 88 105 140 164 167 166 160 151 140 118 88 69 56 49 44 34 22 9 335 289 282 299 311 336 2 7 9 10 6 2 357 356 1 8 10 5 17
148 147 146 145 143 145 146 146 148 147 147 148 147 147 147 149 151 151 148 144 136 127 119 110 101 93 89 88 86 83 74 65 68 66 63 73 94 113 132 147 154 153 146 136 125 109 95 88 84 92 119 154 172 179 177 172 162 116 53 64 47 39 41 33 19 10 356 304 275 281 294 314 341 352 358 3 2 357 355 355 356 4 9 356 352
144 144 143 141 143 146 147 148 150 149 150 151 151 152 153 153 153 152 148 144 135 125 114 108 101 97 99 97 95 88 78 71 66 60 57 62 75 94 117 140 150 150 145 138 131 115 100 90 84 86 98 124 151 171 183 195 216 272 322 56 34 24 28 25 15 5 0 331 276 276 288 301 322 340 340 348 355 353 353 353 353 354 357 354 338
141 141 140 140 144 146 148 150 152 151 152 153 155 157 156 155 153 152 148 143 134 126 118 115 110 108 107 102 98 90 84 76 67 60 55 57 63 76 100 126 141 146 145 141 138 125 110 100 91 89 89 99 113 128 152 185 245 270 258 280 339 352 358 6 9 5 4 351 300 279 285 293 309 331 325 331 345 347 348 348 349 346 343 347 342
142 142 141 143 146 148 151 153 156 155 156 158 159 159 157 155 154 152 148 143 135 129 126 120 115 112 109 104 99 95 92 82 73 65 60 57 57 66 82 104 125 137 144 145 145 142 128 115 102 93 85 82 90 103 102 86 10 344 293 299 311 324 339 352 1 2 4 359 334 299 286 286 298 319 317 318 335 340 341 341 341 340 336 340 346
146 147 146 148 151 153 157 158 160 160 162 162 161 160 157 157 155 152 148 143 139 134 129 124 117 111 107 103 99 97 93 86 82 70 64 60 57 61 69 87 107 125 139 148 152 155 146 132 110 87 67 53 32 63 64 46 25 13 355 335 326 321 333 347 356 354 356 358 346 319 292 283 291 306 313 311 323 331 334 335 334 333 329 332 341
150 153 152 155 157 158 161 162 163 165 166 164 163 162 160 161 157 153 150 146 143 138 135 130 120 107 104 100 97 94 88 84 83 78 72 65 60 60 62 74 90 110 129 146 157 164 166 169 63 9 8 12 3 3 70 40 20 5 356 351 350 342 341 344 346 345 346 348 343 327 297 287 290 295 305 305 312 322 325 328 327 328 326 327 331
154 158 160 162 164 164 165 165 166 167 168 166 164 164 166 165 159 155 152 151 149 145 142 137 127 113 107 99 97 93 88 85 82 83 77 69 65 61 58 64 75 90 106 126 145 160 178 261 332 335 336 345 354 339 328 353 349 343 338 341 354 354 348 340 339 339 339 341 338 330 303 290 289 290 299 300 303 313 317 320 319 322 322 321 322
168 167 168 169 169 169 170 169 169 169 170 169 166 167 170 167 159 156 156 156 155 151 147 142 137 127 116 107 106 100 97 98 91 84 71 69 68 64 60 58 65 71 81 95 99 95 70 27 5 2 359 358 0 352 337 342 342 336 325 319 328 334 336 337 336 338 340 338 335 331 314 296 288 288 297 298 301 306 309 314 313 314 315 314 313
179 174 172 172 173 173 173 174 173 172 173 171 168 169 170 166 160 157 157 158 157 156 154 148 142 137 130 118 114 110 113 115 108 98 71 62 58 66 70 57 60 58 68 82 75 63 46 29 10 7 10 7 3 356 350 351 351 345 331 314 314 319 328 337 339 340 340 338 334 329 317 302 290 289 296 298 301 302 304 309 309 308 308 308 305
182 175 173 174 176 175 175 175 175 174 176 173 170 170 169 166 162 159 157 153 152 156 161 158 151 149 147 139 132 122 130 131 119 122 90 37 16 41 60 44 51 53 71 82 63 45 28 22 14 11 9 4 3 3 0 358 357 354 346 330 322 322 326 333 338 338 338 334 331 327 314 304 296 291 296 302 304 302 302 305 306 305 303 304 301
183 179 176 176 178 177 175 175 176 176 178 176 172 170 170 167 162 162 163 156 152 157 168 176 176 175 169 168 169 175 256 284 309 345 25 355 342 15 29 15 21 30 61 70 55 46 39 32 25 23 15 7 7 8 5 1 359 358 356 351 344 339 337 335 336 336 335 331 329 329 320 311 306 296 299 307 309 304 301 303 303 304 302 302 300
184 183 180 179 180 178 176 176 177 178 180 179 175 172 170 166 161 165 167 162 160 163 174 189 195 194 187 190 200 223 270 291 299 298 292 254 190 142 103 51 37 40 46 52 52 45 41 33 24 21 14 9 9 4 359 356 353 354 357 359 356 353 348 343 341 337 334 333 332 334 332 326 316 305 303 306 313 309 298 296 302 302 299 298 297
183 184 183 182 182 180 178 178 179 180 181 180 178 175 171 165 164 168 169 169 169 166 173 184 188 192 194 201 211 231 269 283 282 280 274 240 186 158 122 99 78 60 51 52 54 42 29 19 13 10 6 1 355 348 344 344 345 347 350 354 354 352 348 345 345 342 339 341 339 340 341 337 328 319 310 302 316 321 303 293 300 301 294 292 287
183 185 185 186 185 182 180 181 183 182 181 181 180 177 171 166 166 170 173 180 177 168 175 181 184 189 193 199 208 227 252 261 261 263 255 228 182 161 128 110 100 85 76 60 41 29 11 1 356 354 354 349 340 334 332 334 340 345 349 350 348 347 345 343 343 343 342 340 338 339 341 340 336 329 319 309 314 323 317 301 299 302 295 290 282
182 185 188 187 187 184 182 183 184 183 182 182 181 176 173 170 168 173 180 189 189 185 187 186 186 190 195 202 209 220 223 212 205 212 220 214 186 162 137 120 111 95 79 60 34 14 359 346 343 343 341 338 333 329 326 325 328 333 337 336 332 333 334 333 333 333 332 329 327 328 330 333 334 332 326 321 320 322 324 314 305 308 307 298 286
181 184 190 188 186 185 184 185 186 183 180 181 181 179 179 178 178 184 191 201 206 204 198 192 191 197 207 215 222 223 208 189 179 172 178 203 196 162 142 134 120 96 67 50 29 6 353 342 340 338 331 327 326 324 322 319 317 318 322 325 325 324 324 325 327 327 327 325 324 325 326 328 329 330 327 325 326 324 326 321 313 310 309 307 298
182 185 189 187 186 186 186 189 187 183 179 179 180 182 183 184 191 200 205 214 213 204 198 196 200 207 217 226 234 228 209 190 178 170 163 181 187 160 150 146 130 102 52 35 12 348 333 328 327 326 320 317 317 317 318 319 318 319 321 323 322 320 320 323 323 325 327 328 331 332 335 336 334 333 331 329 329 329 330 328 323 315 310 310 306
183 186 188 188 189 187 189 190 186 182 178 177 180 184 187 191 201 208 208 209 201 195 196 200 208 214 220 230 233 225 213 197 180 172 168 181 184 166 155 148 134 53 2 1 346 320 307 305 308 313 314 315 319 320 321 323 326 330 333 332 330 329 327 326 325 326 328 333 339 342 342 339 337 336 335 335 334 335 334 332 328 323 319 313 308
183 187 189 191 191 190 192 192 187 185 179 176 181 186 190 194 198 198 195 194 190 192 197 205 215 217 222 228 223 217 212 201 181 174 179 190 185 169 160 157 152 354 342 338 321 306 306 309 316 320 322 328 335 336 333 334 338 341 344 344 345 344 338 334 331 329 330 335 342 345 347 345 346 347 345 343 341 339 337 338 337 333 329 320 315
183 186 189 191 192 193 196 195 191 188 183 181 185 188 189 188 189 189 186 189 190 195 202 211 219 221 222 218 210 206 199 185 170 172 175 178 174 157 148 146 142 151 335 348 323 322 331 332 333 333 331 335 341 343 341 341 343 345 349 354 355 352 349 348 347 349 354 2 12 14 15 14 14 14 10 7 5 3 1 2 2 359 354 344 333
183 184 186 187 188 192 195 196 192 189 186 187 189 189 186 185 187 188 187 190 193 200 207 212 216 214 207 195 195 191 174 163 162 164 163 162 158 142 129 129 127 114 85 42 353 351 1 353 347 341 342 344 341 340 340 339 340 344 350 356 360 2 9 20 27 38 46 50 51 47 43 40 37 36 33 31 31 30 30 29 26 22 18 11 358
184 182 182 180 180 180 183 186 185 184 184 186 187 185 183 184 186 188 191 192 194 199 198 198 195 185 171 162 168 172 163 157 155 155 152 147 142 133 123 119 112 92 72 45 32 24 18 12 1 353 354 351 344 339 336 336 337 339 345 354 4 18 37 49 54 59 62 62 56 51 48 45 43 41 39 38 39 39 40 40 39 36 32 28 25
181 180 178 177 174 170 170 172 174 177 178 181 183 181 180 181 183 187 189 186 183 178 167 164 161 155 153 146 145 150 152 151 149 150 146 135 129 128 124 114 93 72 54 35 32 25 15 13 7 5 360 353 351 346 338 333 332 331 336 347 3 34 54 58 61 59 58 56 50 46 43 40 38 36 34 34 36 39 40 41 40 39 37 35 36
174 175 175 175 171 167 166 166 169 173 175 177 178 177 176 176 176 173 167 160 154 150 148 148 145 144 144 141 141 142 144 146 145 146 141 132 128 125 121 103 72 22 357 354 357 357 356 355 353 358 358 357 356 350 340 331 327 325 326 337 1 59 70 60 57 54 50 47 42 38 36 33 31 29 28 29 32 36 39 40 37 36 35 32 33
169 171 172 173 171 168 166 167 170 173 173 173 173 172 169 167 164 155 145 141 142 143 143 143 140 139 140 141 143 143 145 145 141 141 137 131 124 115 105 65 8 330 328 335 347 350 351 351 347 349 349 348 348 347 342 334 326 324 321 334 20 112 102 65 53 50 44 40 35 32 30 28 28 27 27 29 32 36 39 39 35 34 30 25 24
165 170 171 172 174 172 171 171 173 175 176 175 174 173 169 162 154 145 139 138 142 142 138 138 138 136 138 141 144 144 146 145 141 138 128 117 105 96 79 22 356 343 357 14 12 1 356 354 351 352 352 354 360 358 351 343 338 338 332 344 48 122 136 72 51 45 40 35 31 29 29 28 28 28 28 31 34 37 39 36 33 33 29 19 16
166 171 172 172 174 174 175 175 175 177 177 175 174 173 170 165 154 145 142 140 142 142 137 136 136 137 138 139 140 141 144 141 133 124 104 81 60 53 48 43 34 25 39 39 18 3 360 358 355 358 4 15 24 17 7 6 2 349 337 348 38 102 132 79 48 39 35 32 29 30 30 31 30 29 30 35 37 38 37 32 30 33 29 17 11
170 172 172 170 170 173 176 177 177 175 171 171 173 170 165 162 156 148 146 142 141 143 141 139 140 142 141 136 135 137 142 133 108 72 36 37 20 26 47 51 48 41 40 32 18 12 12 12 10 10 18 32 41 33 27 31 22 3 346 13 31 43 17 29 19 22 31 28 29 31 30 31 29 28 31 37 36 35 33 28 27 30 26 15 9
168 170 170 170 171 175 178 178 176 170 170 174 175 168 157 153 152 149 148 146 141 142 142 140 141 144 139 134 130 122 114 97 73 49 40 48 45 56 69 63 60 50 36 31 28 27 26 27 29 33 44 53 58 50 45 48 42 37 52 36 42 34 36 346 338 351 29 24 28 31 29 28 24 25 30 35 35 31 28 25 25 27 20 10 7
167 169 170 172 174 178 180 179 175 171 174 176 170 164 156 150 148 145 144 141 138 140 140 135 134 136 131 126 118 98 84 72 63 56 52 59 65 71 71 69 68 57 42 40 41 41 42 46 48 52 60 69 77 69 60 60 60 60 66 70 46 28 345 320 326 335 15 16 26 26 28 28 19 22 27 31 34 29 24 22 22 23 14 6 6
170 171 173 174 176 180 180 178 174 172 175 174 170 166 161 157 154 149 146 141 136 138 140 137 134 130 122 117 109 93 82 73 68 65 60 67 73 72 71 70 67 59 52 55 61 65 68 70 71 73 77 83 93 84 70 68 70 68 70 75 75 69 27 337 340 334 342 6 21 12 19 24 17 19 23 27 31 26 21 18 17 19 11 5 7
169 172 175 175 177 180 180 178 174 172 173 172 172 170 166 163 162 160 157 154 147 141 141 140 136 131 125 119 112 103 92 81 77 73 66 72 79 82 80 75 73 72 75 79 81 81 81 82 82 82 83 86 91 85 76 75 74 68 69 72 71 68 57 44 43 333 326 336 0 2 10 14 14 16 17 22 28 24 18 14 12 15 10 5 6
168 171 174 175 178 179 179 179 177 175 174 172 174 174 170 167 166 165 163 161 154 145 143 139 135 135 131 123 117 108 96 87 86 76 70 85 96 97 91 87 89 90 91 90 89 88 86 86 85 84 82 80 83 84 80 78 74 68 67 66 64 61 57 55 50 41 20 308 328 357 0 2 11 15 12 16 24 23 15 10 10 12 9 5 4
168 171 174 176 177 176 176 178 178 177 175 173 174 175 173 171 170 168 162 158 153 146 144 142 140 140 133 125 119 111 102 96 88 73 91 113 115 110 103 100 99 98 97 95 93 93 90 88 85 83 83 83 84 85 82 78 74 69 63 59 55 51 50 47 40 41 49 5 337 342 349 354 1 6 8 11 17 22 13 7 8 11 8 4 3
167 169 172 176 175 172 172 174 175 174 172 174 174 173 174 173 172 169 160 154 151 147 145 144 144 142 135 128 122 118 114 109 103 108 128 128 124 120 113 108 105 102 100 97 96 95 92 89 86 85 87 87 87 85 83 80 74 69 63 58 54 47 43 38 32 34 39 27 3 338 347 351 342 346 358 4 10 18 10 2 6 8 5 2 1
163 165 169 173 171 169 169 169 169 171 172 173 174 173 175 176 174 171 164 159 156 153 149 145 146 145 138 132 127 125 122 121 125 129 129 128 126 124 116 111 109 106 104 101 99 97 94 93 90 90 90 88 87 85 82 80 75 72 67 65 65 62 59 52 41 40 41 30 3 341 343 345 332 329 346 355 4 13 7 359 3 4 1 359 359